xi-an , China , ASIA

  • Tuesday
    November 21

      Cloudy

      36 °F

      West

       

  • Wednesday
    November 22

    Cloudy  Cloudy

    48 °F  34 °F

    Southwest  Southwest

        

  • Thursday
    November 23

    Cloudy  Sunny

    52 °F  34 °F

    South  South

        

  • Friday
    November 24

    Sunny  Sunny

    50 °F  36 °F

    North  Southwest

        

  • Saturday
    November 25

    Sunny  Sunny

    55 °F  36 °F

    Southwest  Southwest

        

  • Sunday
    November 26

    Sunny  Sunny

    54 °F  32 °F

    Northeast  North

        

  • Monday
    November 27

    Sunny  Cloudy

    55 °F  39 °F

    Southwest  Northeast

        

Date   Weather Temperature Humidity Total_rain Visibility Wind
23:00 Cloudy 43°F 58.9% 0mm 999.9km Northwest  2.7m/s
02:00 Cloudy 40°F 60.1% 0mm 999.9km Northwest  2.2m/s
05:00 Cloudy 37°F 66.6% 0mm 999.9km Northwest  1.7m/s
08:00 Cloudy 40°F 66.7% 0mm 999.9km Northwest  1.7m/s
11:00 Cloudy 43°F 55% 0mm 999.9km Northwest  0.6m/s
14:00 Cloudy 48°F 39.9% 0mm 999.9km Northwest  0.7m/s
17:00 Cloudy 44°F 57.5% 0mm 999.9km Northwest  0.4m/s
20:00 Cloudy 42°F 48.5% 0mm 999.9km Northwest  1.6m/s
23:00 Cloudy 38°F 79.1% 0mm 999.9km Northwest  1.7m/s
02:00 Cloudy 37°F 80.5% 0mm 999.9km Northwest  1.8m/s
05:00 Cloudy 35°F 81.9% 0mm 999.9km Northwest  1.4m/s
08:00 Cloudy 37°F 73.7% 0mm 999.9km Northwest  1.2m/s
11:00 Cloudy 47°F 65.5% 0mm 999.9km Southwest  0.9m/s
14:00 Cloudy 53°F 45.3% 0mm 999.9km Southwest  1.3m/s
17:00 Cloudy 49°F 52% 0mm 999.9km Southwest  1.1m/s
20:00 Cloudy 43°F 58.7% 0mm 999.9km Northwest  1.8m/s
23:00 Sunny 42°F 74.3% 0mm 999.9km Northwest  1.4m/s
02:00 Sunny 41°F 71.1% 0mm 999.9km Northwest  1.4m/s
05:00 Sunny 35°F 71.1% 0mm 999.9km Northwest  1.2m/s
08:00 Sunny 41°F 60.3% 0mm 999.9km Northwest  0.9m/s
11:00 Sunny 48°F 49.5% 0mm 999.9km Southeast  0.6m/s
14:00 Sunny 51°F 23.6% 0mm 999.9km South  0.8m/s
17:00 Sunny 48°F 32.2% 0mm 999.9km Southeast  0.4m/s
20:00 Sunny 43°F 40.7% 0mm 999.9km Northwest  1.6m/s
23:00 Sunny 42°F 63.9% 0mm 999.9km Northwest  1.6m/s
02:00 Sunny 42°F 60.2% 0mm 999.9km Northwest  2.0m/s
05:00 Sunny 40°F 59.8% 0mm 999.9km Northwest  1.7m/s
08:00 Sunny 37°F 55% 0mm 999.9km Northwest  1.3m/s
11:00 Sunny 51°F 50.4% 0mm 999.9km Southwest  0.4m/s
14:00 Sunny 56°F 48.9% 0mm 999.9km Southwest  0.8m/s
17:00 Sunny 53°F 47.8% 0mm 999.9km Southeast  0.9m/s
20:00 Sunny 46°F 46.8% 0mm 999.9km Northwest  1.1m/s
23:00 Sunny 39°F 69.3% 0mm 999.9km Northwest  1.0m/s
02:00 Sunny 38°F 69.8% 0mm 999.9km Northwest  1.1m/s
05:00 Sunny 38°F 69.3% 0mm 999.9km Northwest  1.0m/s
08:00 Sunny 39°F 67.3% 0mm 999.9km Northeast  0.8m/s
11:00 Sunny 53°F 52.8% 0mm 999.9km Southeast  1.9m/s
14:00 Sunny 50°F 50.7% 0mm 999.9km Southeast  0.8m/s
17:00 Sunny 47°F 56.5% 0mm 999.9km Southeast  2.0m/s
20:00 Sunny 47°F 52.6% 0mm 999.9km Northeast  0.5m/s
23:00 Sunny 38°F 68.5% 0mm 999.9km Southeast  1.9m/s
02:00 Sunny 36°F 94.2% 0mm 999.9km Southwest  0.6m/s
05:00 Sunny 34°F 74.6% 0mm 999.9km Southwest  1.0m/s
08:00 Sunny 33°F 70.6% 0mm 999.9km Northwest  1.3m/s
11:00 Sunny 51°F 66.6% 0mm 999.9km Northwest  1.7m/s
14:00 Sunny 55°F 64.3% 0mm 999.9km Southwest  0.7m/s
17:00 Sunny 51°F 62% 0mm 999.9km Northwest  0.5m/s
20:00 Sunny 48°F 49.5% 0mm 999.9km Northwest  0.7m/s
23:00 Cloudy 46°F 52.8% 0mm 999.9km Northwest  1.3m/s
02:00 Cloudy 41°F 74.7% 0mm 999.9km Northwest  1.1m/s
05:00 Cloudy 41°F 57.3% 0mm 999.9km Northwest  1.5m/s